Location: Beuerbach
(48.1459°N, 10.9174°E)
Time: 22:50:56
(UTC+00:00)

Cosmos 1408 - Pass Details

Date: 23 May 2024
Orbit: 364 x 378 km, 82.6° (Epoch: 14 June)

Event Time Altitude Azimuth Distance (km) Brightness Sun altitude
Exits shadow 23:54:28 - 98° (E) 2,118 5.9 -20.6°
Enters shadow 00:51:18 -70° 193° (SSW) 12,411 9.7 -17.8°
Maximum altitude 01:27:56 58° 97° (E) 434 2.4 -14.9°
